Ludington, MI

7:19 PM EDT on October 21, 2019 (GMT -0400)
Mason County

Weather History for KLDM - August, 2019

Change the Weather History Date:

Saturday, August 24, 2019

  Actual Average Record
Temperature  
Mean Temperature 60 °F -  
Max Temperature 73 °F 76 °F 91 °F (1948)
Min Temperature 46 °F 56 °F 40 °F (1971)
Degree Days  
Heating Degree Days 6    
Growing Degree Days 10 (Base 50)    
Moisture  
Dew Point 51 °F    
Average Humidity 73    
Maximum Humidity 98    
Minimum Humidity 46    
Precipitation  
Precipitation 0.00 in - - ()
Sea Level Pressure  
Sea Level Pressure 30.29 in    
Wind  
Wind Speed 3 mph (NE)    
Max Wind Speed 12 mph    
Max Gust Speed -    
Visibility 10 miles    
Events      
Averages and records for this station are not official NWS values.
T = Trace of Precipitation, MM = Missing Value Source: NWS Daily Summary

Daily Weather History Graph

Daily Weather History Graph

Search for Another Location

Airport or City:

Astronomy

Aug. 24, 2019 Rise Set
Actual Time 6:59 AM EDT 8:35 PM EDT
Civil Twilight 6:29 AM EDT 9:05 PM EDT
Nautical Twilight 5:52 AM EDT 9:42 PM EDT
Astronomical Twilight 5:12 AM EDT 10:22 PM EDT
Moon 12:48 AM EDT (8/24) 3:56 PM EDT (8/24)
Length of Visible Light 14h 36m
Length of Day
13h 36m
Last Quarter, 39% of the Moon is Illuminated
Aug 24
Last Quarter
Aug 30
New
Sep 5
First Quarter
Sep 14
Full
Sep 21
Last Quarter

Hourly Weather History & Observations

Time (EDT) Temp. Dew Point Humidity Pressure Visibility Wind Dir Wind Speed Gust Speed Precip Events Conditions
12:17 AM 54.5 °F 49.3 °F 83% 30.27 in 10.0 mi Calm Calm - N/A   Clear
12:35 AM 53.4 °F 49.3 °F 86% 30.28 in 10.0 mi Calm Calm - N/A   Clear
12:55 AM 53.4 °F 49.6 °F 87% 30.28 in 10.0 mi Calm Calm - N/A   Clear
1:15 AM 52.3 °F 50.0 °F 92% 30.29 in 10.0 mi Calm Calm - N/A   Clear
1:20 AM 52.0 °F 50.0 °F 93% 30.29 in 10.0 mi Calm Calm - N/A   Clear
1:38 AM 51.6 °F 49.5 °F 92% 30.29 in 10.0 mi Calm Calm - N/A   Clear
1:56 AM 50.9 °F 48.6 °F 92% 30.29 in 10.0 mi East 3.5 mph - N/A   Clear
2:15 AM 52.0 °F 49.3 °F 90% 30.29 in 10.0 mi Calm Calm - N/A   Clear
2:35 AM 49.8 °F 48.6 °F 95% 30.28 in 10.0 mi Calm Calm - N/A   Clear
2:36 AM 49.8 °F 48.6 °F 95% 30.28 in 10.0 mi Calm Calm - N/A   Clear
2:59 AM 49.5 °F 48.4 °F 96% 30.28 in 10.0 mi Calm Calm - N/A   Clear
3:17 AM 48.4 °F 47.1 °F 95% 30.29 in 10.0 mi East 4.6 mph - N/A   Clear
3:35 AM 49.3 °F 48.2 °F 96% 30.29 in 10.0 mi ENE 3.5 mph - N/A   Clear
3:55 AM 48.4 °F 47.5 °F 97% 30.30 in 10.0 mi Calm Calm - N/A   Clear
4:15 AM 47.7 °F 46.9 °F 97% 30.31 in 10.0 mi East 3.5 mph - N/A   Clear
4:20 AM 48.2 °F 47.3 °F 97% 30.31 in 10.0 mi East 3.5 mph - N/A   Clear
4:38 AM 49.1 °F 48.2 °F 97% 30.31 in 10.0 mi Calm Calm - N/A   Mostly Cloudy
4:56 AM 50.0 °F 48.6 °F 95% 30.31 in 10.0 mi Calm Calm - N/A   Mostly Cloudy
5:15 AM 48.6 °F 47.7 °F 97% 30.32 in 10.0 mi Calm Calm - N/A   Clear
5:35 AM 47.5 °F 46.6 °F 97% 30.32 in 10.0 mi Calm Calm - N/A   Clear
5:36 AM 47.3 °F 46.6 °F 97% 30.32 in 10.0 mi Calm Calm - N/A   Clear
5:59 AM 46.9 °F 46.2 °F 97% 30.32 in 10.0 mi Calm Calm - N/A   Clear
6:17 AM 47.7 °F 47.1 °F 98% 30.32 in 10.0 mi Calm Calm - N/A   Clear
6:35 AM 48.2 °F 47.5 °F 97% 30.33 in 10.0 mi Calm Calm - N/A   Clear
6:36 AM 48.2 °F 47.5 °F 97% 30.33 in 10.0 mi Calm Calm - N/A   Clear
6:55 AM 46.9 °F 46.2 °F 97% 30.33 in 5.0 mi Calm Calm - N/A   Clear
7:15 AM 47.3 °F 46.4 °F 97% 30.34 in 10.0 mi Calm Calm - N/A   Clear
7:20 AM 47.1 °F 46.6 °F 98% 30.34 in 10.0 mi Calm Calm - N/A   Clear
7:38 AM 48.2 °F 47.5 °F 97% 30.35 in 10.0 mi Calm Calm - N/A   Clear
7:56 AM 48.9 °F 48.0 °F 97% 30.35 in 10.0 mi Calm Calm - N/A   Clear
8:15 AM 52.0 °F 50.9 °F 96% 30.35 in 10.0 mi Calm Calm - N/A   Clear
8:35 AM 54.9 °F 51.4 °F 88% 30.35 in 10.0 mi Calm Calm - N/A   Clear
8:59 AM 57.9 °F 52.3 °F 82% 30.35 in 10.0 mi East 3.5 mph - N/A   Clear
9:17 AM 59.7 °F 52.0 °F 76% 30.35 in 10.0 mi East 4.6 mph - N/A   Clear
9:35 AM 61.5 °F 52.3 °F 72% 30.34 in 10.0 mi East 4.6 mph - N/A   Clear
9:36 AM 61.5 °F 52.3 °F 72% 30.34 in 10.0 mi East 4.6 mph - N/A   Clear
9:55 AM 63.7 °F 52.7 °F 67% 30.34 in 10.0 mi ESE 5.8 mph - N/A   Clear
9:56 AM 63.7 °F 52.3 °F 67% 30.34 in 10.0 mi ESE 6.9 mph - N/A   Clear
10:15 AM 64.9 °F 51.1 °F 61% 30.34 in 10.0 mi ESE 8.1 mph - N/A   Clear
10:38 AM 66.6 °F 50.4 °F 56% 30.35 in 10.0 mi ESE 8.1 mph - N/A   Clear
10:56 AM 67.6 °F 50.7 °F 55% 30.34 in 10.0 mi East 6.9 mph - N/A   Clear
11:15 AM 68.0 °F 50.2 °F 53% 30.34 in 10.0 mi ESE 5.8 mph - N/A   Clear
11:16 AM 68.0 °F 50.0 °F 52% 30.34 in 10.0 mi East 6.9 mph - N/A   Clear
11:35 AM 68.7 °F 48.9 °F 49% 30.33 in 10.0 mi East 4.6 mph - N/A   Clear
11:36 AM 68.7 °F 49.1 °F 50% 30.33 in 10.0 mi East 5.8 mph - N/A   Clear
11:59 AM 70.0 °F 50.2 °F 49% 30.33 in 10.0 mi East 6.9 mph - N/A   Clear
12:17 PM 70.2 °F 49.8 °F 48% 30.33 in 10.0 mi East 6.9 mph - N/A   Clear
12:35 PM 70.5 °F 50.4 °F 49% 30.32 in 10.0 mi East 3.5 mph - N/A   Clear
12:36 PM 70.5 °F 50.2 °F 48% 30.32 in 10.0 mi ESE 4.6 mph - N/A   Clear
12:55 PM 70.3 °F 49.6 °F 48% 30.32 in 10.0 mi ENE 3.5 mph - N/A   Scattered Clouds
12:56 PM 70.2 °F 49.6 °F 48% 30.32 in 10.0 mi East 3.5 mph - N/A   Scattered Clouds
1:15 PM 70.9 °F 51.3 °F 50% 30.31 in 10.0 mi ENE 9.2 mph - N/A   Scattered Clouds
1:20 PM 71.8 °F 50.9 °F 48% 30.32 in 10.0 mi East 5.8 mph - N/A   Scattered Clouds
1:38 PM 71.1 °F 50.0 °F 47% 30.31 in 10.0 mi Calm Calm - N/A   Scattered Clouds
1:56 PM 71.1 °F 50.0 °F 47% 30.30 in 10.0 mi Calm Calm - N/A   Scattered Clouds
2:15 PM 70.7 °F 49.6 °F 47% 30.29 in 10.0 mi NE 4.6 mph - N/A   Scattered Clouds
2:16 PM 70.3 °F 49.8 °F 48% 30.29 in 10.0 mi NE 4.6 mph - N/A   Scattered Clouds
2:35 PM 72.0 °F 50.2 °F 46% 30.29 in 10.0 mi Calm Calm - N/A   Scattered Clouds
2:36 PM 71.8 °F 50.4 °F 47% 30.29 in 10.0 mi NE 4.6 mph - N/A   Scattered Clouds
2:59 PM 73.4 °F 54.5 °F 51% 30.29 in 10.0 mi NW 3.5 mph - N/A   Scattered Clouds
3:16 PM 72.9 °F 54.0 °F 51% 30.28 in 10.0 mi West 9.2 mph - N/A   Scattered Clouds
3:35 PM 71.8 °F 52.0 °F 50% 30.28 in 10.0 mi North 4.6 mph - N/A   Scattered Clouds
3:36 PM 71.6 °F 52.0 °F 50% 30.28 in 10.0 mi North 3.5 mph - N/A   Scattered Clouds
3:55 PM 72.5 °F 53.4 °F 51% 30.27 in 10.0 mi WNW 6.9 mph - N/A   Scattered Clouds
3:56 PM 72.7 °F 53.8 °F 51% 30.27 in 10.0 mi NW 6.9 mph - N/A   Scattered Clouds
4:15 PM 72.3 °F 54.0 °F 52% 30.27 in 10.0 mi NW 9.2 mph - N/A   Scattered Clouds
4:20 PM 72.7 °F 54.1 °F 52% 30.27 in 10.0 mi NNW 11.5 mph - N/A   Scattered Clouds
4:38 PM 71.8 °F 53.4 °F 52% 30.26 in 10.0 mi NW 11.5 mph - N/A   Scattered Clouds
4:56 PM 72.1 °F 54.1 °F 53% 30.25 in 10.0 mi NNW 8.1 mph - N/A   Clear
5:15 PM 70.9 °F 53.8 °F 55% 30.25 in 10.0 mi NNW 9.2 mph - N/A   Clear
5:16 PM 70.9 °F 53.8 °F 55% 30.25 in 10.0 mi NNW 9.2 mph - N/A   Clear
5:35 PM 70.7 °F 53.8 °F 55% 30.25 in 10.0 mi NNW 8.1 mph - N/A   Clear
5:36 PM 70.7 °F 54.0 °F 55% 30.25 in 10.0 mi North 8.1 mph - N/A   Clear
5:59 PM 70.2 °F 53.8 °F 56% 30.24 in 10.0 mi NNW 9.2 mph - N/A   Clear
6:17 PM 70.0 °F 54.0 °F 57% 30.23 in 10.0 mi NNW 8.1 mph - N/A   Clear
6:35 PM 69.4 °F 54.0 °F 58% 30.24 in 10.0 mi NNW 9.2 mph - N/A   Clear
6:55 PM 68.9 °F 53.8 °F 58% 30.24 in 10.0 mi NNW 8.1 mph - N/A   Clear
7:15 PM 68.0 °F 53.6 °F 60% 30.24 in 10.0 mi North 5.8 mph - N/A   Clear
7:20 PM 68.0 °F 53.6 °F 60% 30.24 in 10.0 mi North 4.6 mph - N/A   Clear
7:38 PM 66.7 °F 54.0 °F 63% 30.24 in 10.0 mi North 5.8 mph - N/A   Clear
7:56 PM 65.3 °F 53.6 °F 66% 30.24 in 10.0 mi North 4.6 mph - N/A   Clear
8:15 PM 63.5 °F 53.8 °F 71% 30.25 in 10.0 mi North 4.6 mph - N/A   Clear
8:35 PM 61.9 °F 53.6 °F 74% 30.24 in 10.0 mi North 4.6 mph - N/A   Clear
8:59 PM 61.2 °F 53.2 °F 75% 30.25 in 10.0 mi North 3.5 mph - N/A   Clear
9:17 PM 61.2 °F 53.8 °F 77% 30.26 in 10.0 mi North 4.6 mph - N/A   Clear
9:35 PM 59.5 °F 54.0 °F 82% 30.26 in 10.0 mi North 4.6 mph - N/A   Clear
9:55 PM 60.8 °F 54.5 °F 80% 30.27 in 10.0 mi North 4.6 mph - N/A   Clear
10:15 PM 59.7 °F 54.5 °F 83% 30.26 in 10.0 mi NNE 3.5 mph - N/A   Clear
10:38 PM 59.2 °F 54.5 °F 84% 30.25 in 10.0 mi Calm Calm - N/A   Clear
10:56 PM 55.6 °F 53.2 °F 92% 30.25 in 10.0 mi Calm Calm - N/A   Clear
11:16 PM 54.9 °F 53.8 °F 96% 30.25 in 10.0 mi Calm Calm - N/A   Clear
11:35 PM 55.4 °F 54.5 °F 97% 30.25 in 10.0 mi Calm Calm - N/A   Clear
11:36 PM 55.4 °F 54.5 °F 97% 30.25 in 10.0 mi Calm Calm - N/A   Clear
11:59 PM 53.6 °F 52.9 °F 97% 30.24 in 10.0 mi Calm Calm - N/A   Clear